User: anonymous   Login
Location: Voyageurs National Park
(48.5020°N, 92.9292°W)
Time: 13:09:27
(UTC-06:00)
Language:

Terra - Orbit

View from above orbital plane
View from above orbital plane
View from above satellite
View from above satellite

Ground track
Ground track

The orbit data is extracted from the following two-line orbital elements,

1 25994U 99068A   17057.37215121 -.00001114  00000-0 -23720-3 0  9999
2 25994  98.2161 133.9485 0001320  88.0487 272.0873 14.57102444914535
Epoch (UTC): 26 February 2017 08:55:53
Eccentricity: 0.0001320
inclination: 98.2161°
perigee height: 701 km
apogee height: 703 km
right ascension of ascending node: 133.9485°
argument of perigee: 88.0487°
revolutions per day: 14.57102444
mean anomaly at epoch: 272.0873°
orbit number at epoch: 91453

The dashed part of the orbit path shows where the satellite is in the earth's shadow,  

DLR